When you browse on this site, cookies collect data to enhance your experience and personalize the content and advertising you see.
Visit our Privacy Policy to learn more. By continuing to use the site, you agree to this use of cookies and data.
  • In Switzerland
  • List of Countries
  • For 7 days
  • Water Temperature
  • Weather Map
  • Weather Widgets
  • user-avatar
    Login

    Hourly Weather Martos

    Today, 8 December, Sunday

    Time Temperature Precipitation Wind Pressure Humidity
    00:00 +6°C° 0 mm 0 mps 706 mmHg 82%
    01:00 +6°C° 0 mm 0 mps 706 mmHg 82%
    02:00 +5°C° 0 mm 0 mps 705 mmHg 83%
    03:00 +5°C° 0 mm 0 mps 705 mmHg 83%
    04:00 +5°C° 0 mm 0 mps 705 mmHg 84%
    05:00 +4°C° 0 mm 0 mps 705 mmHg 84%
    06:00 +4°C° 0 mm 0 mps 705 mmHg 84%
    07:00 +6°C° 0 mm 0 mps 706 mmHg 79%
    08:00 +7°C° 0 mm 0 mps 706 mmHg 74%
    09:00 +8°C° 0 mm 0 mps 707 mmHg 69%
    10:00 +10°C° 0 mm 0 mps 707 mmHg 64%
    11:00 +12°C° 0 mm 1 mps 707 mmHg 59%
    12:00 +13°C° 0 mm 1 mps 707 mmHg 54%
    13:00 +13°C° 0 mm 1 mps 707 mmHg 54%
    14:00 +14°C° 0 mm 1 mps 706 mmHg 53%
    15:00 +14°C° 0 mm 2 mps 706 mmHg 53%
    16:00 +12°C° 0 mm 1 mps 706 mmHg 60%
    17:00 +11°C° 0 mm 1 mps 706 mmHg 67%
    18:00 +9°C° 0 mm 1 mps 706 mmHg 74%
    19:00 +9°C° 0 mm 1 mps 706 mmHg 73%
    20:00 +9°C° 0 mm 1 mps 707 mmHg 72%
    21:00 +9°C° 0 mm 1 mps 707 mmHg 71%
    22:00 +9°C° 0 mm 1 mps 707 mmHg 74%
    23:00 +8°C° 0 mm 1 mps 707 mmHg 76%

    Tomorrow, 9 December, Monday

    Time Temperature Precipitation Wind Pressure Humidity
    00:00 +8°C° 0 mm 1 mps 707 mmHg 79%
    01:00 +7°C° 0 mm 0 mps 707 mmHg 80%
    02:00 +7°C° 0 mm 0 mps 707 mmHg 80%
    03:00 +7°C° 0 mm 0 mps 707 mmHg 81%
    04:00 +6°C° 0 mm 0 mps 707 mmHg 83%
    05:00 +6°C° 0 mm 0 mps 707 mmHg 84%
    06:00 +6°C° 0 mm 0 mps 707 mmHg 86%
    07:00 +7°C° 0 mm 0 mps 707 mmHg 82%
    08:00 +9°C° 0 mm 1 mps 708 mmHg 78%
    09:00 +10°C° 0 mm 1 mps 708 mmHg 74%
    10:00 +12°C° 0 mm 1 mps 708 mmHg 69%
    11:00 +13°C° 0 mm 1 mps 709 mmHg 64%
    12:00 +14°C° 0 mm 1 mps 709 mmHg 59%
    13:00 +15°C° 0 mm 2 mps 709 mmHg 59%
    14:00 +15°C° 0 mm 2 mps 708 mmHg 58%
    15:00 +15°C° 0 mm 2 mps 708 mmHg 58%
    16:00 +14°C° 0 mm 1 mps 708 mmHg 65%
    17:00 +12°C° 0 mm 1 mps 708 mmHg 73%
    18:00 +9°C° 0 mm 0 mps 707 mmHg 81%
    19:00 +10°C° 0 mm 1 mps 708 mmHg 80%
    20:00 +10°C° 0 mm 1 mps 708 mmHg 79%
    21:00 +9°C° 0 mm 1 mps 708 mmHg 79%
    22:00 +9°C° 0 mm 1 mps 708 mmHg 78%
    23:00 +9°C° 0 mm 1 mps 708 mmHg 77%

    Day after tomorrow, 10 December, Tuesday

    Time Temperature Precipitation Wind Pressure Humidity
    00:00 +8°C° 0 mm 1 mps 708 mmHg 76%
    01:00 +8°C° 0 mm 1 mps 707 mmHg 74%
    02:00 +7°C° 0 mm 1 mps 707 mmHg 72%
    03:00 +7°C° 0 mm 1 mps 707 mmHg 70%
    04:00 +7°C° 0 mm 1 mps 707 mmHg 69%
    05:00 +6°C° 0 mm 1 mps 706 mmHg 67%
    06:00 +6°C° 0 mm 1 mps 706 mmHg 66%
    07:00 +8°C° 0 mm 1 mps 707 mmHg 61%
    08:00 +9°C° 0 mm 1 mps 707 mmHg 57%
    09:00 +10°C° 0 mm 1 mps 708 mmHg 52%
    10:00 +12°C° 0 mm 1 mps 708 mmHg 47%
    11:00 +13°C° 0 mm 1 mps 708 mmHg 41%
    12:00 +15°C° 0 mm 1 mps 708 mmHg 35%
    13:00 +15°C° 0 mm 1 mps 707 mmHg 35%
    14:00 +16°C° 0 mm 1 mps 707 mmHg 35%
    15:00 +16°C° 0 mm 1 mps 706 mmHg 36%
    16:00 +14°C° 0 mm 1 mps 706 mmHg 43%
    17:00 +10°C° 0 mm 0 mps 705 mmHg 50%
    18:00 +8°C° 0 mm 0 mps 705 mmHg 58%
    19:00 +8°C° 0 mm 0 mps 705 mmHg 55%
    20:00 +8°C° 0 mm 0 mps 706 mmHg 52%
    21:00 +8°C° 0 mm 0 mps 706 mmHg 49%
    22:00 +7°C° 0 mm 0 mps 706 mmHg 51%
    23:00 +7°C° 0 mm 0 mps 705 mmHg 53%

    11 December, Wednesday

    Time Temperature Precipitation Wind Pressure Humidity
    00:00 +6°C° 0 mm 0 mps 705 mmHg 55%
    01:00 +6°C° 0 mm 0 mps 705 mmHg 56%
    02:00 +6°C° 0 mm 0 mps 705 mmHg 58%
    03:00 +5°C° 0 mm 0 mps 704 mmHg 59%
    04:00 +5°C° 0 mm 0 mps 704 mmHg 60%
    05:00 +5°C° 0 mm 0 mps 704 mmHg 62%
    06:00 +5°C° 0 mm 0 mps 704 mmHg 63%
    07:00 +6°C° 0 mm 0 mps 705 mmHg 59%
    08:00 +9°C° 0 mm 1 mps 705 mmHg 56%
    09:00 +10°C° 0 mm 1 mps 706 mmHg 52%
    10:00 +11°C° 0 mm 1 mps 706 mmHg 49%
    11:00 +13°C° 0 mm 2 mps 706 mmHg 45%
    12:00 +14°C° 0 mm 2 mps 706 mmHg 41%
    13:00 +14°C° 0 mm 2 mps 705 mmHg 45%
    14:00 +14°C° 0 mm 2 mps 705 mmHg 48%
    15:00 +13°C° 0 mm 3 mps 705 mmHg 52%
    16:00 +13°C° 0 mm 2 mps 704 mmHg 57%
    17:00 +10°C° 0 mm 2 mps 704 mmHg 63%
    18:00 +10°C° 0 mm 1 mps 704 mmHg 69%
    19:00 +10°C° 0 mm 1 mps 705 mmHg 70%
    20:00 +10°C° 0 mm 1 mps 705 mmHg 70%
    21:00 +10°C° 0 mm 1 mps 706 mmHg 71%
    22:00 +10°C° 0 mm 1 mps 706 mmHg 75%
    23:00 +9°C° 0 mm 1 mps 706 mmHg 80%

    12 December, Thursday

    Time Temperature Precipitation Wind Pressure Humidity
    00:00 +8°C° 0 mm 1 mps 706 mmHg 85%
    01:00 +6°C° 0 mm 0 mps 706 mmHg 87%
    02:00 +5°C° 0 mm 0 mps 705 mmHg 88%
    03:00 +5°C° 0 mm 0 mps 705 mmHg 90%
    04:00 +4°C° 0 mm 0 mps 705 mmHg 91%
    05:00 +4°C° 0 mm 0 mps 705 mmHg 91%
    06:00 +3°C° 0 mm 0 mps 705 mmHg 91%
    07:00 +4°C° 0 mm 0 mps 706 mmHg 88%
    08:00 +5°C° 0 mm 0 mps 706 mmHg 86%
    09:00 +6°C° 0 mm 0 mps 707 mmHg 83%
    10:00 +8°C° 0 mm 1 mps 707 mmHg 76%
    11:00 +9°C° 0 mm 2 mps 706 mmHg 68%
    12:00 +10°C° 0 mm 3 mps 706 mmHg 61%
    13:00 +10°C° 0 mm 3 mps 706 mmHg 59%
    14:00 +10°C° 0 mm 3 mps 706 mmHg 57%
    15:00 +10°C° 0 mm 3 mps 706 mmHg 55%
    16:00 +9°C° 0 mm 3 mps 706 mmHg 61%
    17:00 +7°C° 0 mm 2 mps 706 mmHg 67%
    18:00 +6°C° 0 mm 2 mps 706 mmHg 73%
    19:00 +6°C° 0 mm 1 mps 706 mmHg 74%
    20:00 +6°C° 0 mm 1 mps 706 mmHg 75%
    21:00 +6°C° 0 mm 1 mps 706 mmHg 76%
    22:00 +5°C° 0 mm 1 mps 706 mmHg 77%
    23:00 +5°C° 0 mm 1 mps 706 mmHg 77%

    13 December, Friday

    Time Temperature Precipitation Wind Pressure Humidity
    00:00 +5°C° 0 mm 1 mps 707 mmHg 77%
    01:00 +5°C° 0 mm 1 mps 706 mmHg 78%
    02:00 +5°C° 0 mm 1 mps 706 mmHg 80%
    03:00 +5°C° 0 mm 1 mps 706 mmHg 81%
    04:00 +6°C° 0 mm 1 mps 706 mmHg 80%
    05:00 +6°C° 0 mm 1 mps 706 mmHg 79%
    06:00 +7°C° 0 mm 1 mps 706 mmHg 78%
    07:00 +7°C° 0 mm 2 mps 706 mmHg 78%
    08:00 +7°C° 0 mm 2 mps 707 mmHg 78%
    09:00 +7°C° 0 mm 2 mps 707 mmHg 78%
    10:00 +8°C° 0 mm 2 mps 707 mmHg 77%
    11:00 +9°C° 0 mm 2 mps 707 mmHg 76%
    12:00 +9°C° 0 mm 2 mps 707 mmHg 76%
    13:00 +10°C° 0 mm 2 mps 706 mmHg 75%
    14:00 +10°C° 0 mm 2 mps 706 mmHg 74%
    15:00 +11°C° 0 mm 3 mps 706 mmHg 73%
    16:00 +10°C° 0 mm 2 mps 706 mmHg 78%
    17:00 +9°C° 0 mm 2 mps 706 mmHg 83%
    18:00 +9°C° 0 mm 1 mps 706 mmHg 88%
    19:00 +9°C° 0 mm 1 mps 706 mmHg 88%
    20:00 +9°C° 0 mm 1 mps 706 mmHg 89%
    21:00 +9°C° 0 mm 1 mps 706 mmHg 90%
    22:00 +7°C° 0 mm 0 mps 706 mmHg 90%
    23:00 +7°C° 0 mm 0 mps 706 mmHg 91%
    Show more